| time (UTC) | temp F | wind direction | speed MPH | gust MPH | rain 1hr in | rain 24hr in | rain mn in | humidity % | barometer mb |
| 20260901174520 | 77 | 213 | 0.0 | 0.0 | 0.00 | 0.00 | 0.00 | 44 | 1012.8 |
| 20260901173018 | 76 | 185 | 0.0 | 0.0 | 0.00 | 0.00 | 0.00 | 41 | 1012.9 |
| 20260901171517 | 76 | 130 | 0.0 | 0.0 | 0.00 | 0.00 | 0.00 | 43 | 1013.0 |
| 20260901170024 | 75 | 101 | 0.0 | 0.0 | 0.00 | 0.00 | 0.00 | 47 | 1013.0 |
| 20260901164514 | 75 | 59 | 0.0 | 0.0 | 0.00 | 0.00 | 0.00 | 46 | 1013.2 |
| 20260901163017 | 74 | 158 | 0.0 | 0.0 | 0.00 | 0.00 | 0.00 | 50 | 1013.2 |
| 20260901161507 | 73 | 30 | 0.0 | 0.0 | 0.00 | 0.00 | 0.00 | 51 | 1013.2 |
| 20260901160039 | 73 | 22 | 0.0 | 0.0 | 0.00 | 0.00 | 0.00 | 49 | 1013.2 |
| 20260901154534 | 72 | 351 | 0.0 | 0.0 | 0.00 | 0.00 | 0.00 | 51 | 1013.1 |
| 20260901153028 | 72 | 307 | 0.0 | 0.0 | 0.00 | 0.00 | 0.00 | 54 | 1013.3 |
| 20260901151528 | 72 | 358 | 0.0 | 0.0 | 0.00 | 0.00 | 0.00 | 58 | 1013.1 |
| 20260901150027 | 71 | 23 | 0.0 | 0.0 | 0.00 | 0.00 | 0.00 | 59 | 1013.2 |
| 20260901144523 | 70 | 23 | 0.0 | 0.0 | 0.00 | 0.00 | 0.00 | 60 | 1013.2 |
| 20260901143054 | 69 | 73 | 0.0 | 0.0 | 0.00 | 0.00 | 0.00 | 61 | 1013.1 |
| 20260901141550 | 68 | 241 | 0.0 | 0.0 | 0.00 | 0.00 | 0.00 | 65 | 1013.2 |
| 20260901140021 | 65 | 241 | 0.0 | 0.0 | 0.00 | 0.00 | 0.00 | 69 | 1013.1 |
| 20260901134513 | 61 | 217 | 0.0 | 0.0 | 0.00 | 0.00 | 0.00 | 79 | 1013.2 |
| 20260901133005 | 58 | 255 | 0.0 | 0.0 | 0.00 | 0.00 | 0.00 | 80 | 1013.3 |
| 20260901131624 | 56 | 220 | 0.0 | 0.0 | 0.00 | 0.00 | 0.00 | 80 | 1013.3 |
| 20260901124559 | 51 | 232 | 0.0 | 0.0 | 0.00 | 0.00 | 0.00 | 87 | 1013.0 |
| 20260901123050 | 0 | 0.0 | 0.0 | 0.00 | 0.00 | 0.00 | 1013.0 | ||
| 20260901121547 | 0 | 0.0 | 0.0 | 0.00 | 0.00 | 0.00 | 1012.9 | ||
| 20260901120042 | 0 | 0.0 | 0.0 | 0.00 | 0.00 | 0.00 | 1012.8 | ||
| 20260901114538 | 0 | 0.0 | 0.0 | 0.00 | 0.00 | 0.00 | 1012.7 | ||
| 20260901113030 | 0 | 0.0 | 0.0 | 0.00 | 0.00 | 0.00 | 1012.7 | ||
| 20260901111526 | 0 | 0.0 | 0.0 | 0.00 | 0.00 | 0.00 | 1012.6 | ||
| 20260901110022 | 0 | 0.0 | 0.0 | 0.00 | 0.00 | 0.00 | 1012.7 | ||
| 20260901104525 | 0 | 0.0 | 0.0 | 0.00 | 0.00 | 0.00 | 1012.4 | ||
| 20260901103010 | 0 | 0.0 | 0.0 | 0.00 | 0.00 | 0.00 | 1012.7 | ||
| 20260901101508 | 52 | 217 | 0.0 | 0.0 | 0.00 | 0.00 | 0.00 | 81 | 1012.6 |
| 20260901100009 | 51 | 220 | 0.0 | 0.0 | 0.00 | 0.00 | 0.00 | 84 | 1012.4 |
| 20260901094507 | 50 | 220 | 0.0 | 0.0 | 0.00 | 0.00 | 0.00 | 86 | 1012.2 |
| 20260901093005 | 50 | 220 | 0.0 | 0.0 | 0.00 | 0.00 | 0.00 | 86 | 1012.3 |
| 20260901091504 | 50 | 244 | 0.0 | 0.0 | 0.00 | 0.00 | 0.00 | 86 | 1012.2 |
| 20260901090009 | 50 | 244 | 0.0 | 0.0 | 0.00 | 0.00 | 0.00 | 87 | 1012.4 |
| 20260901084504 | 50 | 230 | 0.0 | 0.0 | 0.00 | 0.00 | 0.00 | 86 | 1012.4 |
| 20260901083059 | 50 | 236 | 0.0 | 0.0 | 0.00 | 0.00 | 0.00 | 86 | 1012.3 |
| 20260901081605 | 51 | 230 | 0.0 | 0.0 | 0.00 | 0.00 | 0.00 | 84 | 1012.4 |
| 20260901080057 | 51 | 265 | 0.0 | 0.0 | 0.00 | 0.00 | 0.00 | 85 | 1012.4 |
| 20260901074556 | 51 | 239 | 0.0 | 0.0 | 0.00 | 0.00 | 0.00 | 85 | 1012.5 |
| 20260901073053 | 52 | 257 | 0.0 | 0.0 | 0.00 | 0.00 | 0.00 | 83 | 1012.6 |
| 20260901071552 | 52 | 257 | 0.0 | 0.0 | 0.00 | 0.01 | 0.00 | 83 | 1012.5 |
| 20260901070049 | 50 | 220 | 0.0 | 0.0 | 0.00 | 0.01 | 0.00 | 85 | 1012.2 |
| 20260901064549 | 51 | 231 | 0.0 | 0.0 | 0.00 | 0.01 | 0.00 | 85 | 1012.3 |
| 20260901063017 | 51 | 236 | 0.0 | 0.0 | 0.00 | 0.01 | 0.00 | 84 | 1012.2 |
| 20260901061517 | 51 | 245 | 0.0 | 0.0 | 0.00 | 0.01 | 0.00 | 84 | 1012.2 |
| 20260901060013 | 50 | 218 | 0.0 | 0.0 | 0.00 | 0.01 | 0.00 | 84 | 1012.0 |
| 20260901054510 | 52 | 217 | 0.0 | 0.0 | 0.00 | 0.01 | 0.00 | 82 | 1012.0 |
| 20260901053009 | 52 | 220 | 0.0 | 0.0 | 0.00 | 0.01 | 0.00 | 82 | 1011.9 |
| 20260901051510 | 53 | 246 | 0.0 | 0.0 | 0.00 | 0.01 | 0.00 | 81 | 1011.8 |
| 20260901050106 | 53 | 214 | 0.0 | 0.0 | 0.00 | 0.01 | 0.00 | 81 | 1011.7 |
| 20260901044535 | 54 | 215 | 0.0 | 0.0 | 0.00 | 0.01 | 0.00 | 80 | 1011.6 |
| 20260901043033 | 55 | 212 | 0.0 | 0.0 | 0.00 | 0.01 | 0.00 | 77 | 1011.4 |
| 20260901041528 | 54 | 217 | 0.0 | 0.0 | 0.00 | 0.01 | 0.00 | 79 | 1011.0 |
| 20260901040033 | 53 | 218 | 0.0 | 0.0 | 0.00 | 0.01 | 0.00 | 81 | 1010.7 |
| 20260901034532 | 55 | 216 | 0.0 | 0.0 | 0.00 | 0.01 | 0.00 | 78 | 1010.8 |
| 20260901033024 | 54 | 258 | 0.0 | 0.0 | 0.00 | 0.01 | 0.00 | 79 | 1010.9 |
| 20260901031541 | 54 | 262 | 0.0 | 0.0 | 0.00 | 0.01 | 0.00 | 81 | 1011.0 |
| 20260901030023 | 53 | 264 | 0.0 | 0.0 | 0.00 | 0.01 | 0.00 | 82 | 1010.9 |
| 20260901024523 | 54 | 250 | 0.0 | 0.0 | 0.00 | 0.01 | 0.00 | 79 | 1010.6 |
| 20260901023012 | 55 | 250 | 0.0 | 0.0 | 0.00 | 0.01 | 0.00 | 76 | 1010.3 |
| 20260901021507 | 57 | 251 | 0.0 | 0.0 | 0.00 | 0.01 | 0.01 | 73 | 1009.9 |
| 20260901020006 | 60 | 241 | 0.0 | 0.0 | 0.00 | 0.01 | 0.01 | 66 | 1009.6 |
| 20260901014505 | 64 | 243 | 0.0 | 0.0 | 0.00 | 0.01 | 0.01 | 57 | 1009.4 |
| 20260901013004 | 66 | 245 | 0.0 | 0.0 | 0.00 | 0.01 | 0.01 | 52 | 1009.2 |
| 20260901011504 | 71 | 247 | 0.0 | 0.0 | 0.00 | 0.03 | 0.01 | 45 | 1009.0 |
| 20260901010002 | 73 | 251 | 0.0 | 0.0 | 0.00 | 0.03 | 0.01 | 42 | 1008.8 |
| 20260901004601 | 75 | 259 | 0.0 | 0.0 | 0.00 | 0.03 | 0.01 | 40 | 1008.8 |
| 20260901003105 | 76 | 253 | 0.0 | 0.0 | 0.00 | 0.03 | 0.01 | 39 | 1008.7 |
| 20260901001603 | 77 | 283 | 0.0 | 1.0 | 0.00 | 0.36 | 0.01 | 38 | 1008.6 |
| 20260901000103 | 78 | 266 | 0.0 | 1.0 | 0.00 | 0.36 | 0.01 | 36 | 1008.6 |
| 20260831234601 | 78 | 244 | 0.0 | 3.0 | 0.00 | 0.36 | 0.01 | 36 | 1008.6 |
| 20260831233155 | 78 | 276 | 0.0 | 1.0 | 0.00 | 0.36 | 0.01 | 36 | 1008.4 |
| 20260831231557 | 78 | 260 | 0.0 | 1.0 | 0.00 | 0.36 | 0.01 | 38 | 1008.2 |
| 20260831230123 | 79 | 285 | 0.0 | 1.0 | 0.00 | 0.36 | 0.01 | 38 | 1008.2 |
| 20260831224552 | 79 | 270 | 0.0 | 1.0 | 0.00 | 0.36 | 0.01 | 35 | 1008.1 |
| 20260831223051 | 79 | 269 | 0.0 | 1.0 | 0.00 | 0.36 | 0.01 | 39 | 1008.0 |
| 20260831221603 | 79 | 250 | 0.0 | 1.0 | 0.00 | 0.36 | 0.01 | 37 | 1008.0 |
| 20260831220048 | 79 | 262 | 0.0 | 1.0 | 0.00 | 0.36 | 0.01 | 37 | 1007.8 |
| 20260831214548 | 79 | 248 | 0.0 | 1.0 | 0.00 | 0.36 | 0.01 | 38 | 1007.8 |
| 20260831213052 | 78 | 247 | 0.0 | 1.0 | 0.00 | 0.36 | 0.01 | 37 | 1007.9 |
| 20260831211515 | 78 | 266 | 0.0 | 2.0 | 0.00 | 0.36 | 0.01 | 37 | 1008.0 |
| 20260831210013 | 78 | 264 | 0.0 | 1.0 | 0.00 | 0.36 | 0.01 | 38 | 1008.1 |
| 20260831204510 | 78 | 259 | 0.0 | 1.0 | 0.00 | 0.36 | 0.01 | 38 | 1008.0 |
| 20260831203009 | 78 | 228 | 0.0 | 1.0 | 0.00 | 0.36 | 0.01 | 38 | 1008.0 |
| 20260831201509 | 78 | 262 | 0.0 | 9.0 | 0.00 | 0.36 | 0.01 | 36 | 1008.0 |
| 20260831200007 | 78 | 240 | 0.0 | 1.0 | 0.00 | 0.36 | 0.01 | 38 | 1008.2 |
| 20260831194510 | 77 | 205 | 0.0 | 1.0 | 0.00 | 0.36 | 0.01 | 35 | 1008.0 |
| 20260831193002 | 77 | 229 | 0.0 | 6.0 | 0.00 | 0.36 | 0.01 | 36 | 1008.3 |
| 20260831191600 | 76 | 239 | 0.0 | 1.0 | 0.00 | 0.36 | 0.01 | 37 | 1008.4 |
| 20260831190108 | 76 | 253 | 0.0 | 1.0 | 0.00 | 0.36 | 0.01 | 38 | 1008.4 |
| 20260831184607 | 76 | 247 | 0.0 | 2.0 | 0.00 | 0.36 | 0.01 | 39 | 1008.5 |
| 20260831183055 | 75 | 244 | 0.0 | 4.0 | 0.00 | 0.36 | 0.01 | 37 | 1008.6 |
| 20260831181552 | 75 | 254 | 0.0 | 3.0 | 0.00 | 0.36 | 0.01 | 39 | 1008.7 |
| 20260831180050 | 74 | 290 | 0.0 | 1.0 | 0.00 | 0.36 | 0.01 | 39 | 1008.8 |